Location: Namasale
(1.5000°N, 32.6167°E)
Time: 08:57:37
(UTC+00:00)

Vanguard 1 Rocket - Pass Details

Date: 21 April 2021
Orbit: 652 x 4225 km, 34.3° (Epoch: 15 May)

Event Time Altitude Azimuth Distance (km) Brightness Sun altitude
Rises 01:03:13 0° 232° (SW) 7,669 - -39.8°
Reaches altitude 10° 01:11:17 10° 216° (SW) 7,108 - -37.9°
Exits shadow 01:16:23 15° 205° (SSW) 6,847 11.5 -36.6°
Maximum altitude 01:27:59 20° 175° (S) 6,544 11.6 -33.8°
Drops below altitude 10° 01:44:05 10° 134° (SE) 6,882 12.2 -30.0°
Sets 01:51:34 0° 118° (ESE) 7,380 12.7 -28.1°
